Time,TemperatureF,DewpointF,PressureIn,WindDirection,WindDirectionDegrees,WindSpeedMPH,WindSpeedGustMPH,Humidity,HourlyPrecipIn,Conditions,Clouds,dailyrainin,SoftwareType,DateUTC
2013-04-05 00:02:00,48.0,43.0,-100.00,South,175,17.0,18.0,82,-99.99,,,-99.99,,2013-04-05 07:02:00,
2013-04-05 00:10:00,48.0,44.0,-100.00,South,180,15.0,20.0,85,-99.99,,,-99.99,,2013-04-05 07:10:00,
2013-04-05 01:02:00,48.0,44.0,-100.00,South,180,15.0,20.0,85,-99.99,,,-99.99,,2013-04-05 08:02:00,
2013-04-05 01:10:00,46.0,44.0,-100.00,South,180,14.0,17.0,92,-99.99,,,-99.99,,2013-04-05 08:10:00,
2013-04-05 02:02:00,46.0,44.0,-100.00,South,180,14.0,17.0,92,-99.99,,,-99.99,,2013-04-05 09:02:00,
2013-04-05 02:10:00,45.0,42.0,-100.00,South,185,10.0,12.0,89,-99.99,,,-99.99,,2013-04-05 09:10:00,
2013-04-05 03:02:00,45.0,42.0,-100.00,South,185,10.0,12.0,89,-99.99,,,-99.99,,2013-04-05 10:02:00,
2013-04-05 03:10:00,45.0,43.0,-100.00,South,175,10.0,13.0,92,-99.99,,,-99.99,,2013-04-05 10:10:00,
2013-04-05 04:02:00,45.0,43.0,-100.00,South,175,10.0,13.0,92,-99.99,,,-99.99,,2013-04-05 11:02:00,
2013-04-05 04:10:00,45.0,42.0,-100.00,South,170,12.0,15.0,89,-99.99,,,-99.99,,2013-04-05 11:10:00,
2013-04-05 05:02:00,45.0,42.0,-100.00,South,170,12.0,15.0,89,-99.99,,,-99.99,,2013-04-05 12:02:00,
2013-04-05 05:10:00,44.0,42.0,-100.00,SSE,155,6.0,8.0,92,-99.99,,,-99.99,,2013-04-05 12:10:00,
2013-04-05 06:02:00,44.0,42.0,-100.00,SSE,155,6.0,8.0,92,-99.99,,,-99.99,,2013-04-05 13:02:00,
2013-04-05 07:02:00,43.0,41.0,-100.00,SSE,155,12.0,14.0,92,-99.99,,,-99.99,,2013-04-05 14:02:00,
2013-04-05 08:02:00,44.0,40.0,-100.00,South,170,17.0,21.0,85,-99.99,,,-99.99,,2013-04-05 15:02:00,
2013-04-05 09:02:00,46.0,41.0,-100.00,South,175,20.0,27.0,82,-99.99,,,-99.99,,2013-04-05 16:02:00,
2013-04-05 10:03:00,45.0,41.0,-100.00,South,185,22.0,30.0,85,-99.99,,,-99.99,,2013-04-05 17:03:00,
2013-04-05 11:02:00,46.0,41.0,-100.00,South,180,22.0,29.0,82,-99.99,,,-99.99,,2013-04-05 18:02:00,
2013-04-05 12:02:00,48.0,41.0,-100.00,South,185,28.0,35.0,76,-99.99,,,-99.99,,2013-04-05 19:02:00,
2013-04-05 13:02:00,49.0,41.0,-100.00,SSW,205,22.0,33.0,73,-99.99,,,-99.99,,2013-04-05 20:02:00,
2013-04-05 14:02:00,53.0,42.0,-100.00,SSW,205,24.0,35.0,66,-99.99,,,-99.99,,2013-04-05 21:02:00,
2013-04-05 15:03:00,55.0,41.0,-100.00,SSW,210,25.0,30.0,59,-99.99,,,-99.99,,2013-04-05 22:03:00,
2013-04-05 16:02:00,55.0,40.0,-100.00,South,185,22.0,28.0,56,-99.99,,,-99.99,,2013-04-05 23:02:00,
2013-04-05 17:02:00,57.0,38.0,-100.00,South,190,27.0,33.0,48,-99.99,,,-99.99,,2013-04-06 00:02:00,
2013-04-05 18:02:00,56.0,37.0,-100.00,SSW,200,20.0,25.0,48,-99.99,,,-99.99,,2013-04-06 01:02:00,
2013-04-05 19:02:00,55.0,38.0,-100.00,South,185,20.0,25.0,52,-99.99,,,-99.99,,2013-04-06 02:02:00,
2013-04-05 20:02:00,51.0,36.0,-100.00,SSW,195,15.0,21.0,56,-99.99,,,-99.99,,2013-04-06 03:02:00,
2013-04-05 20:10:00,47.0,37.0,-100.00,SSW,195,12.0,13.0,68,-99.99,,,-99.99,,2013-04-06 03:10:00,
2013-04-05 21:03:00,47.0,37.0,-100.00,SSW,195,12.0,13.0,68,-99.99,,,-99.99,,2013-04-06 04:03:00,
2013-04-05 22:02:00,47.0,36.0,-100.00,SSW,195,14.0,18.0,65,-99.99,,,-99.99,,2013-04-06 05:02:00,
2013-04-05 22:10:00,46.0,37.0,-100.00,South,180,13.0,15.0,70,-99.99,,,-99.99,,2013-04-06 05:10:00,
2013-04-05 23:02:00,46.0,37.0,-100.00,South,180,13.0,15.0,70,-99.99,,,-99.99,,2013-04-06 06:02:00,
2013-04-05 23:10:00,46.0,37.0,-100.00,South,175,12.0,14.0,70,-99.99,,,-99.99,,2013-04-06 06:10:00,